Tehachapi, CA

11:13 PM PST on December 16, 2017 (GMT -0800)
Tehachapi Municipal

Weather History for KTSP - April, 2013

Change the Weather History Date:

Wednesday, April 24, 2013

  Actual Average Record
Temperature  
Mean Temperature 56 °F -  
Max Temperature 73 °F 62 °F 73 °F (2013)
Min Temperature 39 °F 38 °F 35 °F (2016)
Degree Days  
Heating Degree Days 9    
Growing Degree Days 6 (Base 50)    
Moisture  
Dew Point 25 °F    
Average Humidity 36    
Maximum Humidity 62    
Minimum Humidity 10    
Precipitation  
Precipitation 0.00 in - - ()
Sea Level Pressure  
Sea Level Pressure 29.94 in    
Wind  
Wind Speed 7 mph (ESE)    
Max Wind Speed 24 mph    
Max Gust Speed 32 mph    
Visibility 10 miles    
Events      
Averages and records for this station are not official NWS values.
T = Trace of Precipitation, MM = Missing Value Source: NWS Daily Summary

Daily Weather History Graph

Daily Weather History Graph

Search for Another Location

Airport or City:

Trip Planner

Search our weather history database for the weather conditions in past years. The results will help you decide how hot, cold, wet, or windy it might be!

Date:

Astronomy

Apr. 24, 2013 Rise Set
Actual Time 6:10 AM PDT 7:34 PM PDT
Civil Twilight 5:43 AM PDT 8:00 PM PDT
Nautical Twilight 5:11 AM PDT 8:32 PM PDT
Astronomical Twilight 4:38 AM PDT 9:06 PM PDT
Moon 6:43 PM PDT (4/24) 5:14 AM PDT (4/24)
Length of Visible Light 14h 17m
Length of Day
13h 23m
Waxing Gibbous, 98% of the Moon is Illuminated
Apr 24
Waxing Gibbous
Apr 25
Full
May 2
Last Quarter
May 9
New
May 17
First Quarter

Hourly Weather History & Observations

Time (PDT) Temp. Windchill Dew Point Humidity Pressure Visibility Wind Dir Wind Speed Gust Speed Precip Events Conditions
12:15 AM 44.6 °F 41.4 °F 23.0 °F 43% 30.00 in 10.0 mi SE 5.8 mph - N/A   Clear
12:35 AM 44.6 °F - 21.2 °F 39% 29.99 in 10.0 mi Calm Calm - N/A   Clear
12:55 AM 44.6 °F 40.7 °F 23.0 °F 43% 29.99 in 10.0 mi ESE 6.9 mph - N/A   Clear
1:15 AM 41.0 °F - 24.8 °F 53% 29.98 in 10.0 mi Calm Calm - N/A   Clear
1:35 AM 41.0 °F 38.0 °F 24.8 °F 53% 29.98 in 10.0 mi SE 4.6 mph - N/A   Clear
1:55 AM 42.8 °F 41.1 °F 24.8 °F 49% 29.98 in 10.0 mi East 3.5 mph - N/A   Clear
2:15 AM 41.0 °F - 23.0 °F 49% 29.97 in 10.0 mi Calm Calm - N/A   Clear
2:35 AM 41.0 °F - 24.8 °F 53% 29.96 in 10.0 mi Calm Calm - N/A   Clear
2:55 AM 39.2 °F - 24.8 °F 56% 29.95 in 10.0 mi Calm Calm - N/A   Clear
3:15 AM 41.0 °F 38.0 °F 28.4 °F 61% 29.95 in 10.0 mi SE 4.6 mph - N/A   Clear
3:35 AM 41.0 °F 37.1 °F 26.6 °F 57% 29.95 in 10.0 mi ESE 5.8 mph - N/A   Clear
3:55 AM 41.0 °F 38.0 °F 26.6 °F 57% 29.95 in 10.0 mi ESE 4.6 mph - N/A   Clear
4:15 AM 39.2 °F - 26.6 °F 61% 29.94 in 10.0 mi Calm Calm - N/A   Clear
4:35 AM 41.0 °F 37.1 °F 26.6 °F 57% 29.94 in 10.0 mi SE 5.8 mph - N/A   Clear
4:55 AM 41.0 °F - 26.6 °F 57% 29.94 in 10.0 mi Calm Calm - N/A   Clear
5:15 AM 41.0 °F 38.0 °F 28.4 °F 61% 29.94 in 10.0 mi East 4.6 mph - N/A   Clear
5:35 AM 41.0 °F - 26.6 °F 57% 29.94 in 10.0 mi Calm Calm - N/A   Clear
5:55 AM 41.0 °F 38.0 °F 28.4 °F 61% 29.94 in 10.0 mi East 4.6 mph - N/A   Clear
6:15 AM 41.0 °F 39.0 °F 28.4 °F 61% 29.95 in 9.0 mi East 3.5 mph - N/A   Clear
6:35 AM 41.0 °F - 28.4 °F 61% 29.95 in 9.0 mi Calm Calm - N/A   Clear
6:55 AM 41.0 °F 38.0 °F 28.4 °F 61% 29.95 in 9.0 mi SE 4.6 mph - N/A   Clear
7:15 AM 44.6 °F - 30.2 °F 57% 29.96 in 8.0 mi Calm Calm - N/A   Clear
7:35 AM 46.4 °F - 32.0 °F 57% 29.96 in 7.0 mi Calm Calm - N/A   Clear
7:55 AM 50.0 °F - 32.0 °F 50% 29.96 in 9.0 mi ESE 3.5 mph - N/A   Clear
8:15 AM 55.4 °F - 32.0 °F 41% 29.96 in 9.0 mi ESE 3.5 mph - N/A   Clear
8:35 AM 57.2 °F - 32.0 °F 38% 29.96 in 9.0 mi East 4.6 mph - N/A   Clear
8:55 AM 59.0 °F - 32.0 °F 36% 29.96 in 10.0 mi SE 5.8 mph - N/A   Clear
9:15 AM 64.4 °F - 30.2 °F 28% 29.96 in 10.0 mi ESE 11.5 mph - N/A   Clear
9:35 AM 66.2 °F - 30.2 °F 26% 29.96 in 10.0 mi SE 12.7 mph - N/A   Clear
9:55 AM 68.0 °F - 28.4 °F 23% 29.96 in 9.0 mi SE 11.5 mph 20.7 mph N/A   Clear
10:15 AM 69.8 °F - 26.6 °F 20% 29.97 in 10.0 mi ESE 13.8 mph 18.4 mph N/A   Clear
10:35 AM 69.8 °F - 24.8 °F 18% 29.97 in 10.0 mi SE 12.7 mph 18.4 mph N/A   Clear
10:55 AM 71.6 °F - 19.4 °F 14% 29.97 in 10.0 mi ESE 15.0 mph 23.0 mph N/A   Clear
11:15 AM 71.6 °F - 19.4 °F 14% 29.97 in 10.0 mi East 16.1 mph 21.9 mph N/A   Clear
11:35 AM 69.8 °F - 19.4 °F 15% 29.97 in 10.0 mi East 15.0 mph 23.0 mph N/A   Clear
11:55 AM 69.8 °F - 19.4 °F 15% 29.96 in 10.0 mi East 15.0 mph 25.3 mph N/A   Clear
12:15 PM 69.8 °F - 19.4 °F 15% 29.95 in 10.0 mi East 17.3 mph 26.5 mph N/A   Clear
12:35 PM 73.4 °F - 21.2 °F 14% 29.95 in 10.0 mi ENE 18.4 mph 26.5 mph N/A   Clear
12:55 PM 71.6 °F - 19.4 °F 14% 29.94 in 10.0 mi ESE 24.2 mph 31.1 mph N/A   Clear
1:15 PM 71.6 °F - 17.6 °F 13% 29.93 in 10.0 mi East 17.3 mph 27.6 mph N/A   Clear
1:35 PM 73.4 °F - 15.8 °F 11% 29.92 in 10.0 mi ESE 21.9 mph 32.2 mph N/A   Clear
1:55 PM 73.4 °F - 15.8 °F 11% 29.92 in 10.0 mi East 18.4 mph 26.5 mph N/A   Clear
2:15 PM 73.4 °F - 14.0 °F 10% 29.91 in 10.0 mi ESE 20.7 mph 28.8 mph N/A   Clear
2:35 PM 71.6 °F - 15.8 °F 12% 29.91 in 10.0 mi ESE 21.9 mph 28.8 mph N/A   Clear
2:55 PM 71.6 °F - 15.8 °F 12% 29.91 in 10.0 mi East 15.0 mph 26.5 mph N/A   Clear
3:15 PM 71.6 °F - 14.0 °F 11% 29.90 in 10.0 mi East 15.0 mph 26.5 mph N/A   Clear
3:35 PM 71.6 °F - 14.0 °F 11% 29.89 in 10.0 mi ESE 17.3 mph 25.3 mph N/A   Clear
3:55 PM 71.6 °F - 14.0 °F 11% 29.89 in 10.0 mi ESE 17.3 mph 27.6 mph N/A   Clear
4:15 PM 71.6 °F - 14.0 °F 11% 29.89 in 10.0 mi ESE 18.4 mph 26.5 mph N/A   Clear
4:35 PM 71.6 °F - 14.0 °F 11% 29.89 in 10.0 mi East 13.8 mph 20.7 mph N/A   Clear
4:55 PM 73.4 °F - 14.0 °F 10% 29.88 in 10.0 mi East 10.4 mph 28.8 mph N/A   Clear
5:15 PM 73.4 °F - 14.0 °F 10% 29.88 in 10.0 mi East 19.6 mph 26.5 mph N/A   Clear
5:35 PM 71.6 °F - 14.0 °F 11% 29.88 in 10.0 mi East 19.6 mph 26.5 mph N/A   Clear
5:55 PM 71.6 °F - 14.0 °F 11% 29.88 in 10.0 mi East 13.8 mph 19.6 mph N/A   Clear
6:15 PM 68.0 °F - 14.0 °F 12% 29.88 in 10.0 mi East 13.8 mph 20.7 mph N/A   Clear
6:35 PM 68.0 °F - 14.0 °F 12% 29.88 in 10.0 mi East 11.5 mph - N/A   Clear
6:55 PM 66.2 °F - 15.8 °F 14% 29.89 in 10.0 mi ENE 8.1 mph - N/A   Clear
8:15 PM 60.8 °F - 12.2 °F 15% 29.91 in 10.0 mi West 4.6 mph - N/A   Mostly Cloudy
8:35 PM 62.6 °F - 32.0 °F 32% 29.92 in 10.0 mi WSW 13.8 mph 21.9 mph N/A   Mostly Cloudy
8:55 PM 59.0 °F - 41.0 °F 51% 29.93 in 8.0 mi West 10.4 mph 16.1 mph N/A   Overcast
9:15 PM 57.2 °F - 41.0 °F 55% 29.94 in 8.0 mi WSW 12.7 mph 17.3 mph N/A   Overcast
9:35 PM 57.2 °F - 41.0 °F 55% 29.94 in 8.0 mi West 8.1 mph - N/A   Overcast
9:55 PM 57.2 °F - 41.0 °F 55% 29.95 in 8.0 mi West 6.9 mph - N/A   Overcast
10:15 PM 57.2 °F - 41.0 °F 55% 29.95 in 8.0 mi West 10.4 mph - N/A   Overcast
10:35 PM 57.2 °F - 41.0 °F 55% 29.96 in 8.0 mi NW 5.8 mph - N/A   Overcast
10:55 PM 55.4 °F - 41.0 °F 58% 29.95 in 8.0 mi NW 10.4 mph - N/A   Overcast
11:15 PM 53.6 °F - 41.0 °F 62% 29.96 in 8.0 mi NW 9.2 mph - N/A   Mostly Cloudy
11:35 PM 53.6 °F - 39.2 °F 58% 29.96 in 10.0 mi NW 12.7 mph - N/A   Clear
11:55 PM 53.6 °F - 39.2 °F 58% 29.96 in 10.0 mi NW 12.7 mph 19.6 mph N/A   Clear